THOR ABLESTAR DEB, 334

Orbit data source: Space-Track

THOR ABLESTAR DEB, 334 is space debris in LEO originally from a launch on Thu, 29 Jun 1961 UTC launched from the Air Force Eastern Test Range (AFETR). Debris objects in space refer to the collection of defunct objects orbiting the Earth. Examples of debris include non-operational satellites, rocket bodies, and fragments generated from explosions, collisions, or faulty payload assembly.

Loading next visibility...
Identifier
334, 1961-015DL
Orbit
LEO
Last TLE update
15 hours ago
Origin
Manufacturer
Unknown
Mission
Spacecraft
Bus & Motor
Unknown
Mass
Unknown
Launch date (UTC)
1961-06-29 (64 years ago)
Launch vehicle
Unknown
Launch site
Air Force Eastern Test Range (AFETR)
Object type
Payload
Rocket body
Debris
Shape & HBR
Unknown
Radar Cross Section
Small (<0.1 m²)

Expand to show TLE details & history

TLE from 15 hours ago
0 THOR ABLESTAR DEB
1   334U 61015DL  25129.33497648  .00000064  00000-0  10782-3 0  9997
2   334  66.9233  86.5687 0075928  29.9406 330.5984 13.91661740240301
Epoch: 2025-05-09T08:02Z
Definitive object data (Epoch: 2025-05-09T08:02:21.967Z)
Latitude
-0.00002°
Longitude
98.58456°
Altitude
876.702 km
Speed
7.439 km/s
True Right ascension
05h 46m 16s
True Declination
0° 00' 00"
Sunlit
Object was in daylight at TLE epoch
Visualization TLE readout
Latitude
5.30013°
Longitude
-85.15113°
Altitude
969.454 km
Speed
7.345 km/s
Apparent Right ascension
18h 03m 25s
Apparent Declination
-15° 45' 25"
Sunlit
Object is in full shadow
Visualization observer readout
Local Sidereal Time
06:51:32
Azimuth
26.881° NE
Elevation
-63.663°
Doppler factor
1
Orbital elements
Apogee altitude
976.614 km
Perigee altitude
865.769 km
Semi-major axis
7,299.329 km
Eccentricity
0.0075928
Inclination
66.9233°
RAAN
86.5687°
Arg. of periapsis
29.9406°
True anomaly
330.1677°
Mean anomaly
330.5984°
Eccentric anomaly
330.38341°
Mean motion
3.48032 °/min
BSTAR
0.00010782
Orbital period
103.44 mins
Loading maneuver chart data...
Loading SW <> Apogee altitude chart data...

THOR ABLESTAR DEB Visibility forecast

Observer location: undefined°, undefined°

Span
Click to sort rows by Start time (UTC) header in descending order
Start Az.
Max El. time (UTC)
Max El. Az.
Max El.
End time (UTC)
End Az.
10 mins2025-05-09 23:43:02.359Z244.057° WSW2025-05-09 23:48:02.359Z310.377° NW29.981°2025-05-09 23:53:02.359Z12.689° NNE
9 mins2025-05-10 07:01:02.359Z356.931° N2025-05-10 07:05:02.359Z60.518° ENE31.021°2025-05-10 07:10:02.359Z118.06° SE
9 mins2025-05-10 08:47:02.359Z306.953° NW2025-05-10 08:51:02.359Z249.149° W31.287°2025-05-10 08:56:02.359Z187.369° SSW
9 mins2025-05-10 22:07:02.359Z184.03° SSW2025-05-10 22:11:02.359Z109.362° ESE39.269°2025-05-10 22:16:02.359Z38.834° NE
|